Year,Month,Day,Hour,Minute,Value (Times are PST for windgust in km/hr)
2012,03,10,00,00,1.60
2012,03,10,00,01,3.20
2012,03,10,00,02,3.20
2012,03,10,00,04,1.60
2012,03,10,00,09,1.60
2012,03,10,00,10,1.60
2012,03,10,00,11,3.20
2012,03,10,00,23,1.60
2012,03,10,00,24,1.60
2012,03,10,00,27,1.60
2012,03,10,00,54,1.60
2012,03,10,01,02,1.60
2012,03,10,01,03,1.60
2012,03,10,01,04,1.60
2012,03,10,01,05,4.80
2012,03,10,01,06,3.20
2012,03,10,01,07,3.20
2012,03,10,01,08,1.60
2012,03,10,01,09,1.60
2012,03,10,01,10,1.60
2012,03,10,01,12,1.60
2012,03,10,01,13,3.20
2012,03,10,01,14,1.60
2012,03,10,01,15,3.20
2012,03,10,01,18,3.20
2012,03,10,01,19,4.80
2012,03,10,01,20,4.80
2012,03,10,01,21,3.20
2012,03,10,01,22,3.20
2012,03,10,01,23,4.80
2012,03,10,01,24,3.20
2012,03,10,01,25,3.20
2012,03,10,01,26,3.20
2012,03,10,01,27,4.80
2012,03,10,01,28,4.80
2012,03,10,01,29,3.20
2012,03,10,01,30,1.60
2012,03,10,01,31,1.60
2012,03,10,01,32,1.60
2012,03,10,01,36,1.60
2012,03,10,01,37,1.60
2012,03,10,01,43,1.60
2012,03,10,01,44,1.60
2012,03,10,01,46,1.60
2012,03,10,02,33,1.60
2012,03,10,02,34,4.80
2012,03,10,02,35,3.20
2012,03,10,02,40,1.60
2012,03,10,02,41,1.60
2012,03,10,02,55,1.60
2012,03,10,03,01,1.60
2012,03,10,03,03,1.60
2012,03,10,03,04,3.20
2012,03,10,03,05,1.60
2012,03,10,03,07,1.60
2012,03,10,03,08,3.20
2012,03,10,03,10,1.60
2012,03,10,03,11,1.60
2012,03,10,03,12,1.60
2012,03,10,03,13,1.60
2012,03,10,03,17,3.20
2012,03,10,04,35,1.60
2012,03,10,04,36,4.80
2012,03,10,04,50,3.20
2012,03,10,04,51,3.20
2012,03,10,04,52,1.60
2012,03,10,04,57,3.20
2012,03,10,04,58,4.80
2012,03,10,05,18,1.60
2012,03,10,05,28,1.60
2012,03,10,05,32,1.60
2012,03,10,05,33,1.60
2012,03,10,05,36,1.60
2012,03,10,05,54,3.20
2012,03,10,05,55,4.80
2012,03,10,05,57,3.20
2012,03,10,06,08,1.60
2012,03,10,06,09,6.40
2012,03,10,06,10,6.40
2012,03,10,06,11,4.80
2012,03,10,06,12,3.20
2012,03,10,06,13,4.80
2012,03,10,06,14,4.80
2012,03,10,06,15,6.40
2012,03,10,06,16,4.80
2012,03,10,06,17,4.80
2012,03,10,06,18,4.80
2012,03,10,06,19,4.80
2012,03,10,06,20,1.60
2012,03,10,06,25,1.60
2012,03,10,06,35,1.60
2012,03,10,06,37,3.20
2012,03,10,06,39,4.80
2012,03,10,06,40,4.80
2012,03,10,06,46,1.60
2012,03,10,06,47,1.60
2012,03,10,06,48,3.20
2012,03,10,06,52,1.60
2012,03,10,06,54,1.60
2012,03,10,06,57,1.60
2012,03,10,07,00,1.60
2012,03,10,07,21,1.60
2012,03,10,07,29,3.20
2012,03,10,07,37,1.60
2012,03,10,07,40,1.60
2012,03,10,07,43,4.80
2012,03,10,07,44,3.20
2012,03,10,07,45,1.60
2012,03,10,07,46,1.60
2012,03,10,07,47,3.20
2012,03,10,07,50,1.60
2012,03,10,07,51,3.20
2012,03,10,07,52,4.80
2012,03,10,07,53,1.60
2012,03,10,07,54,4.80
2012,03,10,07,55,3.20
2012,03,10,07,56,1.60
2012,03,10,07,57,3.20
2012,03,10,07,58,1.60
2012,03,10,07,59,6.40
2012,03,10,08,00,3.20
2012,03,10,08,01,3.20
2012,03,10,08,02,1.60
2012,03,10,08,03,3.20
2012,03,10,08,04,3.20
2012,03,10,08,05,4.80
2012,03,10,08,06,3.20
2012,03,10,08,07,3.20
2012,03,10,08,08,3.20
2012,03,10,08,09,1.60
2012,03,10,08,21,1.60
2012,03,10,08,28,1.60
2012,03,10,08,29,1.60
2012,03,10,08,48,1.60
2012,03,10,08,55,3.20
2012,03,10,08,56,4.80
2012,03,10,08,57,3.20
2012,03,10,08,58,4.80
2012,03,10,08,59,1.60
2012,03,10,09,00,6.40
2012,03,10,09,01,4.80
2012,03,10,09,03,1.60
2012,03,10,09,05,4.80
2012,03,10,09,06,3.20
2012,03,10,09,07,4.80
2012,03,10,09,08,6.40
2012,03,10,09,09,6.40
2012,03,10,09,10,4.80
2012,03,10,09,11,3.20
2012,03,10,09,12,3.20
2012,03,10,09,13,3.20
2012,03,10,09,14,4.80
2012,03,10,09,15,1.60
2012,03,10,09,16,1.60
2012,03,10,09,18,4.80
2012,03,10,09,19,4.80
2012,03,10,09,21,3.20
2012,03,10,09,22,6.40
2012,03,10,09,23,1.60
2012,03,10,09,24,4.80
2012,03,10,09,25,9.60
2012,03,10,09,26,6.40
2012,03,10,09,27,4.80
2012,03,10,09,28,6.40
2012,03,10,09,29,3.20
2012,03,10,09,30,6.40
2012,03,10,09,31,11.30
2012,03,10,09,32,4.80
2012,03,10,09,33,4.80
2012,03,10,09,34,6.40
2012,03,10,09,35,4.80
2012,03,10,09,36,8.10
2012,03,10,09,37,6.40
2012,03,10,09,38,3.20
2012,03,10,09,39,8.10
2012,03,10,09,40,11.30
2012,03,10,09,41,9.60
2012,03,10,09,42,8.10
2012,03,10,09,43,8.10
2012,03,10,09,44,8.10
2012,03,10,09,45,6.40
2012,03,10,09,46,8.10
2012,03,10,09,47,11.30
2012,03,10,09,48,8.10
2012,03,10,09,49,9.60
2012,03,10,09,50,4.80
2012,03,10,09,51,11.30
2012,03,10,09,52,4.80
2012,03,10,09,53,6.40
2012,03,10,09,54,11.30
2012,03,10,09,55,8.10
2012,03,10,09,56,6.40
2012,03,10,09,57,8.10
2012,03,10,09,58,8.10
2012,03,10,09,59,11.30
2012,03,10,10,00,8.10
2012,03,10,10,01,8.10
2012,03,10,10,02,11.30
2012,03,10,10,03,8.10
2012,03,10,10,04,6.40
2012,03,10,10,05,6.40
2012,03,10,10,06,14.50
2012,03,10,10,07,14.50
2012,03,10,10,08,14.50
2012,03,10,10,09,9.60
2012,03,10,10,10,9.60
2012,03,10,10,11,11.30
2012,03,10,10,12,9.60
2012,03,10,10,13,11.30
2012,03,10,10,14,14.50
2012,03,10,10,15,8.10
2012,03,10,10,16,8.10
2012,03,10,10,17,8.10
2012,03,10,10,18,9.60
2012,03,10,10,19,4.80
2012,03,10,10,20,6.40
2012,03,10,10,21,6.40
2012,03,10,10,22,6.40
2012,03,10,10,23,8.10
2012,03,10,10,24,11.30
2012,03,10,10,25,11.30
2012,03,10,10,26,12.90
2012,03,10,10,27,17.70
2012,03,10,10,28,16.10
2012,03,10,10,29,12.90
2012,03,10,10,30,16.10
2012,03,10,10,31,11.30
2012,03,10,10,32,11.30
2012,03,10,10,33,6.40
2012,03,10,10,34,6.40
2012,03,10,10,35,17.70
2012,03,10,10,36,11.30
2012,03,10,10,37,16.10
2012,03,10,10,38,14.50
2012,03,10,10,39,9.60
2012,03,10,10,40,11.30
2012,03,10,10,41,11.30
2012,03,10,10,42,6.40
2012,03,10,10,43,14.50
2012,03,10,10,44,9.60
2012,03,10,10,45,16.10
2012,03,10,10,46,11.30
2012,03,10,10,47,14.50
2012,03,10,10,48,8.10
2012,03,10,10,49,11.30
2012,03,10,10,50,14.50
2012,03,10,10,51,9.60
2012,03,10,10,52,11.30
2012,03,10,10,53,11.30
2012,03,10,10,54,9.60
2012,03,10,10,55,14.50
2012,03,10,10,56,9.60
2012,03,10,10,57,14.50
2012,03,10,10,58,8.10
2012,03,10,10,59,6.40
2012,03,10,11,00,16.10
2012,03,10,11,01,14.50
2012,03,10,11,02,11.30
2012,03,10,11,03,14.50
2012,03,10,11,04,11.30
2012,03,10,11,05,11.30
2012,03,10,11,06,4.80
2012,03,10,11,07,8.10
2012,03,10,11,08,9.60
2012,03,10,11,09,12.90
2012,03,10,11,10,11.30
2012,03,10,11,11,6.40
2012,03,10,11,12,8.10
2012,03,10,11,13,9.60
2012,03,10,11,14,8.10
2012,03,10,11,15,14.50
2012,03,10,11,16,9.60
2012,03,10,11,17,9.60
2012,03,10,11,18,8.10
2012,03,10,11,19,6.40
2012,03,10,11,20,6.40
2012,03,10,11,21,11.30
2012,03,10,11,22,9.60
2012,03,10,11,23,14.50
2012,03,10,11,24,14.50
2012,03,10,11,25,11.30
2012,03,10,11,26,6.40
2012,03,10,11,27,6.40
2012,03,10,11,28,6.40
2012,03,10,11,29,9.60
2012,03,10,11,30,8.10
2012,03,10,11,31,8.10
2012,03,10,11,32,6.40
2012,03,10,11,33,8.10
2012,03,10,11,34,11.30
2012,03,10,11,35,4.80
2012,03,10,11,36,11.30
2012,03,10,11,37,6.40
2012,03,10,11,38,9.60
2012,03,10,11,39,9.60
2012,03,10,11,40,11.30
2012,03,10,11,41,11.30
2012,03,10,11,42,6.40
2012,03,10,11,43,9.60
2012,03,10,11,44,6.40
2012,03,10,11,45,3.20
2012,03,10,11,46,9.60
2012,03,10,11,47,8.10
2012,03,10,11,48,4.80
2012,03,10,11,49,4.80
2012,03,10,11,50,8.10
2012,03,10,11,51,6.40
2012,03,10,11,52,6.40
2012,03,10,11,53,9.60
2012,03,10,11,54,14.50
2012,03,10,11,55,9.60
2012,03,10,11,56,4.80
2012,03,10,11,57,11.30
2012,03,10,11,58,8.10
2012,03,10,11,59,8.10
2012,03,10,12,00,9.60
2012,03,10,12,01,8.10
2012,03,10,12,02,8.10
2012,03,10,12,03,8.10
2012,03,10,12,04,9.60
2012,03,10,12,05,9.60
2012,03,10,12,06,9.60
2012,03,10,12,07,9.60
2012,03,10,12,08,6.40
2012,03,10,12,09,9.60
2012,03,10,12,10,8.10
2012,03,10,12,11,8.10
2012,03,10,12,12,6.40
2012,03,10,12,13,6.40
2012,03,10,12,14,8.10
2012,03,10,12,15,4.80
2012,03,10,12,16,4.80
2012,03,10,12,17,8.10
2012,03,10,12,18,11.30
2012,03,10,12,19,9.60
2012,03,10,12,20,9.60
2012,03,10,12,21,8.10
2012,03,10,12,22,16.10
2012,03,10,12,23,9.60
2012,03,10,12,24,14.50
2012,03,10,12,25,9.60
2012,03,10,12,26,8.10
2012,03,10,12,27,8.10
2012,03,10,12,28,8.10
2012,03,10,12,29,8.10
2012,03,10,12,30,9.60
2012,03,10,12,31,9.60
2012,03,10,12,32,8.10
2012,03,10,12,33,6.40
2012,03,10,12,34,9.60
2012,03,10,12,35,8.10
2012,03,10,12,36,16.10
2012,03,10,12,37,11.30
2012,03,10,12,38,14.50
2012,03,10,12,39,12.90
2012,03,10,12,40,11.30
2012,03,10,12,41,11.30
2012,03,10,12,42,16.10
2012,03,10,12,43,16.10
2012,03,10,12,44,14.50
2012,03,10,12,45,11.30
2012,03,10,12,46,8.10
2012,03,10,12,47,9.60
2012,03,10,12,48,14.50
2012,03,10,12,49,6.40
2012,03,10,12,50,8.10
2012,03,10,12,51,11.30
2012,03,10,12,52,16.10
2012,03,10,12,53,19.30
2012,03,10,12,54,9.60
2012,03,10,12,55,8.10
2012,03,10,12,56,6.40
2012,03,10,12,57,8.10
2012,03,10,12,58,4.80
2012,03,10,12,59,14.50
2012,03,10,13,00,16.10
2012,03,10,13,01,14.50
2012,03,10,13,02,12.90
2012,03,10,13,03,11.30
2012,03,10,13,04,9.60
2012,03,10,13,05,8.10
2012,03,10,13,06,6.40
2012,03,10,13,07,12.90
2012,03,10,13,08,11.30
2012,03,10,13,09,14.50
2012,03,10,13,10,9.60
2012,03,10,13,11,9.60
2012,03,10,13,12,9.60
2012,03,10,13,13,6.40
2012,03,10,13,14,4.80
2012,03,10,13,15,6.40
2012,03,10,13,16,11.30
2012,03,10,13,17,14.50
2012,03,10,13,18,14.50
2012,03,10,13,19,8.10
2012,03,10,13,20,12.90
2012,03,10,13,21,8.10
2012,03,10,13,22,4.80
2012,03,10,13,23,8.10
2012,03,10,13,24,9.60
2012,03,10,13,25,8.10
2012,03,10,13,26,9.60
2012,03,10,13,27,3.20
2012,03,10,13,28,4.80
2012,03,10,13,29,4.80
2012,03,10,13,30,11.30
2012,03,10,13,31,11.30
2012,03,10,13,32,6.40
2012,03,10,13,33,11.30
2012,03,10,13,34,4.80
2012,03,10,13,35,8.10
2012,03,10,13,36,11.30
2012,03,10,13,37,8.10
2012,03,10,13,38,16.10
2012,03,10,13,39,11.30
2012,03,10,13,40,9.60
2012,03,10,13,41,4.80
2012,03,10,13,42,9.60
2012,03,10,13,43,9.60
2012,03,10,13,44,9.60
2012,03,10,13,45,9.60
2012,03,10,13,46,4.80
2012,03,10,13,47,1.60
2012,03,10,13,48,3.20
2012,03,10,13,49,4.80
2012,03,10,13,50,3.20
2012,03,10,13,51,4.80
2012,03,10,13,52,6.40
2012,03,10,13,53,4.80
2012,03,10,13,54,9.60
2012,03,10,13,55,8.10
2012,03,10,13,56,4.80
2012,03,10,13,57,6.40
2012,03,10,13,58,6.40
2012,03,10,13,59,6.40
2012,03,10,14,00,8.10
2012,03,10,14,01,9.60
2012,03,10,14,02,16.10
2012,03,10,14,03,14.50
2012,03,10,14,04,4.80
2012,03,10,14,05,6.40
2012,03,10,14,06,4.80
2012,03,10,14,07,6.40
2012,03,10,14,08,6.40
2012,03,10,14,09,6.40
2012,03,10,14,10,8.10
2012,03,10,14,11,3.20
2012,03,10,14,12,6.40
2012,03,10,14,13,8.10
2012,03,10,14,14,8.10
2012,03,10,14,15,8.10
2012,03,10,14,16,3.20
2012,03,10,14,17,9.60
2012,03,10,14,18,11.30
2012,03,10,14,19,14.50
2012,03,10,14,20,9.60
2012,03,10,14,21,14.50
2012,03,10,14,22,11.30
2012,03,10,14,23,11.30
2012,03,10,14,24,14.50
2012,03,10,14,25,19.30
2012,03,10,14,26,14.50
2012,03,10,14,27,6.40
2012,03,10,14,28,8.10
2012,03,10,14,29,3.20
2012,03,10,14,30,4.80
2012,03,10,14,31,6.40
2012,03,10,14,32,6.40
2012,03,10,14,33,3.20
2012,03,10,14,34,4.80
2012,03,10,14,35,11.30
2012,03,10,14,36,6.40
2012,03,10,14,37,8.10
2012,03,10,14,38,8.10
2012,03,10,14,39,8.10
2012,03,10,14,40,6.40
2012,03,10,14,41,6.40
2012,03,10,14,42,14.50
2012,03,10,14,43,8.10
2012,03,10,14,44,16.10
2012,03,10,14,45,9.60
2012,03,10,14,46,14.50
2012,03,10,14,47,9.60
2012,03,10,14,48,11.30
2012,03,10,14,49,11.30
2012,03,10,14,50,9.60
2012,03,10,14,51,9.60
2012,03,10,14,52,6.40
2012,03,10,14,53,9.60
2012,03,10,14,54,9.60
2012,03,10,14,55,16.10
2012,03,10,14,56,16.10
2012,03,10,14,57,14.50
2012,03,10,14,58,16.10
2012,03,10,14,59,16.10
2012,03,10,15,00,11.30
2012,03,10,15,01,11.30
2012,03,10,15,02,12.90
2012,03,10,15,03,11.30
2012,03,10,15,04,11.30
2012,03,10,15,05,9.60
2012,03,10,15,06,3.20
2012,03,10,15,07,11.30
2012,03,10,15,08,8.10
2012,03,10,15,09,9.60
2012,03,10,15,10,16.10
2012,03,10,15,11,12.90
2012,03,10,15,12,14.50
2012,03,10,15,13,8.10
2012,03,10,15,14,8.10
2012,03,10,15,15,8.10
2012,03,10,15,16,4.80
2012,03,10,15,17,4.80
2012,03,10,15,18,8.10
2012,03,10,15,19,6.40
2012,03,10,15,20,9.60
2012,03,10,15,21,6.40
2012,03,10,15,22,6.40
2012,03,10,15,23,9.60
2012,03,10,15,24,8.10
2012,03,10,15,25,8.10
2012,03,10,15,26,9.60
2012,03,10,15,27,8.10
2012,03,10,15,28,9.60
2012,03,10,15,29,6.40
2012,03,10,15,30,4.80
2012,03,10,15,31,8.10
2012,03,10,15,32,8.10
2012,03,10,15,33,6.40
2012,03,10,15,34,6.40
2012,03,10,15,35,6.40
2012,03,10,15,36,8.10
2012,03,10,15,37,12.90
2012,03,10,15,38,12.90
2012,03,10,15,39,8.10
2012,03,10,15,40,8.10
2012,03,10,15,41,8.10
2012,03,10,15,42,11.30
2012,03,10,15,43,4.80
2012,03,10,15,44,9.60
2012,03,10,15,45,9.60
2012,03,10,15,46,9.60
2012,03,10,15,47,6.40
2012,03,10,15,48,8.10
2012,03,10,15,49,6.40
2012,03,10,15,50,6.40
2012,03,10,15,51,8.10
2012,03,10,15,52,6.40
2012,03,10,15,53,9.60
2012,03,10,15,54,9.60
2012,03,10,15,55,9.60
2012,03,10,15,56,6.40
2012,03,10,15,57,8.10
2012,03,10,15,58,6.40
2012,03,10,15,59,4.80
2012,03,10,16,00,4.80
2012,03,10,16,02,9.60
2012,03,10,16,03,8.10
2012,03,10,16,04,3.20
2012,03,10,16,05,6.40
2012,03,10,16,06,8.10
2012,03,10,16,07,8.10
2012,03,10,16,08,6.40
2012,03,10,16,09,9.60
2012,03,10,16,10,9.60
2012,03,10,16,11,6.40
2012,03,10,16,12,8.10
2012,03,10,16,13,8.10
2012,03,10,16,14,9.60
2012,03,10,16,15,9.60
2012,03,10,16,16,4.80
2012,03,10,16,17,8.10
2012,03,10,16,18,9.60
2012,03,10,16,19,9.60
2012,03,10,16,20,8.10
2012,03,10,16,21,8.10
2012,03,10,16,22,6.40
2012,03,10,16,23,4.80
2012,03,10,16,24,3.20
2012,03,10,16,25,8.10
2012,03,10,16,26,6.40
2012,03,10,16,27,8.10
2012,03,10,16,28,8.10
2012,03,10,16,29,6.40
2012,03,10,16,30,6.40
2012,03,10,16,31,4.80
2012,03,10,16,32,3.20
2012,03,10,16,33,3.20
2012,03,10,16,35,3.20
2012,03,10,16,36,4.80
2012,03,10,16,37,1.60
2012,03,10,16,39,4.80
2012,03,10,16,40,6.40
2012,03,10,16,41,4.80
2012,03,10,16,42,4.80
2012,03,10,16,43,4.80
2012,03,10,16,44,4.80
2012,03,10,16,45,3.20
2012,03,10,16,46,1.60
2012,03,10,16,47,4.80
2012,03,10,16,48,1.60
2012,03,10,16,52,1.60
2012,03,10,16,53,1.60
2012,03,10,16,54,1.60
2012,03,10,16,55,1.60
2012,03,10,16,56,1.60
2012,03,10,16,57,4.80
2012,03,10,16,58,6.40
2012,03,10,16,59,6.40
2012,03,10,17,00,4.80
2012,03,10,17,01,8.10
2012,03,10,17,02,6.40
2012,03,10,17,03,4.80
2012,03,10,17,04,3.20
2012,03,10,17,05,4.80
2012,03,10,17,07,1.60
2012,03,10,17,09,3.20
2012,03,10,17,10,4.80
2012,03,10,17,11,6.40
2012,03,10,17,12,4.80
2012,03,10,17,13,6.40
2012,03,10,17,14,4.80
2012,03,10,17,15,4.80
2012,03,10,17,16,6.40
2012,03,10,17,17,4.80
2012,03,10,17,19,1.60
2012,03,10,17,20,1.60
2012,03,10,17,21,1.60
2012,03,10,17,22,4.80
2012,03,10,17,23,4.80
2012,03,10,17,24,3.20
2012,03,10,17,25,1.60
2012,03,10,17,26,4.80
2012,03,10,17,27,4.80
2012,03,10,17,28,4.80
2012,03,10,17,29,3.20
2012,03,10,17,30,3.20
2012,03,10,17,31,3.20
2012,03,10,17,32,6.40
2012,03,10,17,33,8.10
2012,03,10,17,34,6.40
2012,03,10,17,35,8.10
2012,03,10,17,36,6.40
2012,03,10,17,37,9.60
2012,03,10,17,38,8.10
2012,03,10,17,39,6.40
2012,03,10,17,40,6.40
2012,03,10,17,41,6.40
2012,03,10,17,42,4.80
2012,03,10,17,43,6.40
2012,03,10,17,44,4.80
2012,03,10,17,45,4.80
2012,03,10,17,46,4.80
2012,03,10,17,47,6.40
2012,03,10,17,48,4.80
2012,03,10,17,51,3.20
2012,03,10,17,52,6.40
2012,03,10,17,53,6.40
2012,03,10,17,54,6.40
2012,03,10,17,55,6.40
2012,03,10,17,56,6.40
2012,03,10,17,57,4.80
2012,03,10,17,58,6.40
2012,03,10,17,59,6.40
2012,03,10,18,00,4.80
2012,03,10,18,01,4.80
2012,03,10,18,02,1.60
2012,03,10,18,04,1.60
2012,03,10,18,05,4.80
2012,03,10,18,06,6.40
2012,03,10,18,07,8.10
2012,03,10,18,08,6.40
2012,03,10,18,09,6.40
2012,03,10,18,10,4.80
2012,03,10,18,11,4.80
2012,03,10,18,12,3.20
2012,03,10,18,13,3.20
2012,03,10,18,14,3.20
2012,03,10,18,15,4.80
2012,03,10,18,16,4.80
2012,03,10,18,17,6.40
2012,03,10,18,18,3.20
2012,03,10,18,21,1.60
2012,03,10,18,22,3.20
2012,03,10,18,23,4.80
2012,03,10,18,24,4.80
2012,03,10,18,25,3.20
2012,03,10,18,26,1.60
2012,03,10,18,27,4.80
2012,03,10,18,28,4.80
2012,03,10,18,29,1.60
2012,03,10,18,33,4.80
2012,03,10,18,34,1.60
2012,03,10,18,35,1.60
2012,03,10,18,36,1.60
2012,03,10,18,37,1.60
2012,03,10,18,38,4.80
2012,03,10,18,39,6.40
2012,03,10,18,40,3.20
2012,03,10,18,41,4.80
2012,03,10,18,43,1.60
2012,03,10,18,45,1.60
2012,03,10,18,51,1.60
2012,03,10,18,56,1.60
2012,03,10,18,57,1.60
2012,03,10,18,59,4.80
2012,03,10,19,00,3.20
2012,03,10,19,01,4.80
2012,03,10,19,04,3.20
2012,03,10,19,05,3.20
2012,03,10,19,07,3.20
2012,03,10,19,08,3.20
2012,03,10,19,09,6.40
2012,03,10,19,12,3.20
2012,03,10,19,13,6.40
2012,03,10,19,14,8.10
2012,03,10,19,15,6.40
2012,03,10,19,16,6.40
2012,03,10,19,18,3.20
2012,03,10,19,19,1.60
2012,03,10,19,20,1.60
2012,03,10,19,25,3.20
2012,03,10,19,26,3.20
2012,03,10,19,27,1.60
2012,03,10,19,29,1.60
2012,03,10,19,30,6.40
2012,03,10,19,31,1.60
2012,03,10,19,32,3.20
2012,03,10,19,33,8.10
2012,03,10,19,34,6.40
2012,03,10,19,35,11.30
2012,03,10,19,36,6.40
2012,03,10,19,37,9.60
2012,03,10,19,38,8.10
2012,03,10,19,39,6.40
2012,03,10,19,40,4.80
2012,03,10,19,41,6.40
2012,03,10,19,42,3.20
2012,03,10,19,43,4.80
2012,03,10,19,44,14.50
2012,03,10,19,45,8.10
2012,03,10,19,46,8.10
2012,03,10,19,47,4.80
2012,03,10,19,48,9.60
2012,03,10,19,49,1.60
2012,03,10,19,50,8.10
2012,03,10,19,51,4.80
2012,03,10,19,52,3.20
2012,03,10,19,53,4.80
2012,03,10,19,54,9.60
2012,03,10,19,55,16.10
2012,03,10,19,56,9.60
2012,03,10,19,57,9.60
2012,03,10,19,58,11.30
2012,03,10,19,59,6.40
2012,03,10,20,00,19.30
2012,03,10,20,01,19.30
2012,03,10,20,02,14.50
2012,03,10,20,03,17.70
2012,03,10,20,04,16.10
2012,03,10,20,05,16.10
2012,03,10,20,06,16.10
2012,03,10,20,07,16.10
2012,03,10,20,08,22.50
2012,03,10,20,09,16.10
2012,03,10,20,10,14.50
2012,03,10,20,11,11.30
2012,03,10,20,12,14.50
2012,03,10,20,13,22.50
2012,03,10,20,14,17.70
2012,03,10,20,15,17.70
2012,03,10,20,16,11.30
2012,03,10,20,17,14.50
2012,03,10,20,18,17.70
2012,03,10,20,19,17.70
2012,03,10,20,20,19.30
2012,03,10,20,21,14.50
2012,03,10,20,22,9.60
2012,03,10,20,23,8.10
2012,03,10,20,24,22.50
2012,03,10,20,25,22.50
2012,03,10,20,26,20.90
2012,03,10,20,27,22.50
2012,03,10,20,28,24.20
2012,03,10,20,29,11.30
2012,03,10,20,30,11.30
2012,03,10,20,31,19.30
2012,03,10,20,32,19.30
2012,03,10,20,33,19.30
2012,03,10,20,34,20.90
2012,03,10,20,35,20.90
2012,03,10,20,36,19.30
2012,03,10,20,37,17.70
2012,03,10,20,38,6.40
2012,03,10,20,39,19.30
2012,03,10,20,40,19.30
2012,03,10,20,41,16.10
2012,03,10,20,42,19.30
2012,03,10,20,43,9.60
2012,03,10,20,44,19.30
2012,03,10,20,45,14.50
2012,03,10,20,46,11.30
2012,03,10,20,47,16.10
2012,03,10,20,48,14.50
2012,03,10,20,49,19.30
2012,03,10,20,50,24.20
2012,03,10,20,51,12.90
2012,03,10,20,52,17.70
2012,03,10,20,53,17.70
2012,03,10,20,54,11.30
2012,03,10,20,55,14.50
2012,03,10,20,56,17.70
2012,03,10,20,57,17.70
2012,03,10,20,58,16.10
2012,03,10,20,59,11.30
2012,03,10,21,00,9.60
2012,03,10,21,01,6.40
2012,03,10,21,02,20.90
2012,03,10,21,03,11.30
2012,03,10,21,04,9.60
2012,03,10,21,05,9.60
2012,03,10,21,06,11.30
2012,03,10,21,07,8.10
2012,03,10,21,08,9.60
2012,03,10,21,09,11.30
2012,03,10,21,10,6.40
2012,03,10,21,11,9.60
2012,03,10,21,12,8.10
2012,03,10,21,13,8.10
2012,03,10,21,14,11.30
2012,03,10,21,15,9.60
2012,03,10,21,16,9.60
2012,03,10,21,17,17.70
2012,03,10,21,18,9.60
2012,03,10,21,19,9.60
2012,03,10,21,20,9.60
2012,03,10,21,21,9.60
2012,03,10,21,22,8.10
2012,03,10,21,23,9.60
2012,03,10,21,24,8.10
2012,03,10,21,25,8.10
2012,03,10,21,26,4.80
2012,03,10,21,27,11.30
2012,03,10,21,28,9.60
2012,03,10,21,29,9.60
2012,03,10,21,30,14.50
2012,03,10,21,31,12.90
2012,03,10,21,32,6.40
2012,03,10,21,33,8.10
2012,03,10,21,34,9.60
2012,03,10,21,35,9.60
2012,03,10,21,36,11.30
2012,03,10,21,37,14.50
2012,03,10,21,38,9.60
2012,03,10,21,39,3.20
2012,03,10,21,40,1.60
2012,03,10,21,41,8.10
2012,03,10,21,42,8.10
2012,03,10,21,43,4.80
2012,03,10,21,44,6.40
2012,03,10,21,45,3.20
2012,03,10,21,46,8.10
2012,03,10,21,48,1.60
2012,03,10,21,49,11.30
2012,03,10,21,50,11.30
2012,03,10,21,51,4.80
2012,03,10,21,53,8.10
2012,03,10,21,54,6.40
2012,03,10,21,56,4.80
2012,03,10,21,57,4.80
2012,03,10,21,58,3.20
2012,03,10,21,59,3.20
2012,03,10,22,00,4.80
2012,03,10,22,01,1.60
2012,03,10,22,02,3.20
2012,03,10,22,03,1.60
2012,03,10,22,05,8.10
2012,03,10,22,06,8.10
2012,03,10,22,07,11.30
2012,03,10,22,08,6.40
2012,03,10,22,09,6.40
2012,03,10,22,10,6.40
2012,03,10,22,11,6.40
2012,03,10,22,12,6.40
2012,03,10,22,13,1.60
2012,03,10,22,14,6.40
2012,03,10,22,15,8.10
2012,03,10,22,16,8.10
2012,03,10,22,17,4.80
2012,03,10,22,18,6.40
2012,03,10,22,19,6.40
2012,03,10,22,20,6.40
2012,03,10,22,21,4.80
2012,03,10,22,22,1.60
2012,03,10,22,23,1.60
2012,03,10,22,24,6.40
2012,03,10,22,25,11.30
2012,03,10,22,26,8.10
2012,03,10,22,27,9.60
2012,03,10,22,28,9.60
2012,03,10,22,29,8.10
2012,03,10,22,30,6.40
2012,03,10,22,31,6.40
2012,03,10,22,32,6.40
2012,03,10,22,33,8.10
2012,03,10,22,34,9.60
2012,03,10,22,35,8.10
2012,03,10,22,36,3.20
2012,03,10,22,37,8.10
2012,03,10,22,38,6.40
2012,03,10,22,39,4.80
2012,03,10,22,40,4.80
2012,03,10,22,41,9.60
2012,03,10,22,42,8.10
2012,03,10,22,43,9.60
2012,03,10,22,44,6.40
2012,03,10,22,45,3.20
2012,03,10,22,46,4.80
2012,03,10,22,47,1.60
2012,03,10,22,48,3.20
2012,03,10,22,51,3.20
2012,03,10,22,52,3.20
2012,03,10,22,55,1.60
2012,03,10,22,56,1.60
2012,03,10,22,58,1.60
2012,03,10,23,01,1.60
2012,03,10,23,03,6.40
2012,03,10,23,06,1.60
2012,03,10,23,07,3.20
2012,03,10,23,08,4.80
2012,03,10,23,09,4.80
2012,03,10,23,10,3.20
2012,03,10,23,11,1.60
2012,03,10,23,12,3.20
2012,03,10,23,13,3.20
2012,03,10,23,14,4.80
2012,03,10,23,16,3.20
2012,03,10,23,17,3.20
2012,03,10,23,20,1.60
2012,03,10,23,29,1.60
2012,03,10,23,35,3.20
2012,03,10,23,41,1.60
2012,03,10,23,42,3.20
2012,03,10,23,43,3.20
2012,03,10,23,44,1.60
2012,03,10,23,47,1.60
2012,03,10,23,52,1.60
2012,03,10,23,54,8.10
2012,03,10,23,55,11.30
2012,03,10,23,56,4.80
2012,03,10,23,57,6.40
2012,03,10,23,58,6.40
2012,03,10,23,59,8.10
